User: anonymous   Login
Location: Houston
(29.7630°N, 95.3630°W)
Time: 20:57:34
(UTC-05:00)
Language:

ISS - Orbit

View from above orbital plane
View from above orbital plane
View from above satellite
View from above satellite

Ground track
Ground track

The orbit data is extracted from the following two-line orbital elements,

1 25544U 98067A   15123.83371769  .00011512  00000-0  16691-3 0  9992
2 25544 051.6469 305.5522 0005097 294.3287 211.8586 15.56336416941130
Epoch (UTC): 03 May 2015 20:00:33
Eccentricity: 0.0005097
inclination: 51.6469°
perigee height: 395 km
apogee height: 402 km
right ascension of ascending node: 305.5522°
argument of perigee: 294.3287°
revolutions per day: 15.56336416
mean anomaly at epoch: 211.8586°
orbit number at epoch: 94113

The dashed part of the orbit path shows where the satellite is in the earth's shadow,  

DLR